[[{"header":{"parameterUnit":"m.s-1","parameterCategory":1,"la1":30.2991,"la2":30.254,"lo1":-89.0895,"lo2":-89.0444,"dy":0.0017,"dx":0.0017,"nx":28,"ny":28,"refTime":"2024-07-12T21:00:00:Z","depth":0,"parameterNumber":2,"parameterNumberName":"U-component_of_WINDS"},"data":[0,0,0,0,0,0,0,0,0,0,0,0,0,0,0,0,0,0,0,0,0,0,0,0,0,0,0,0,0,0,0,0,0,0,0,0,0,0,0,0,0,0,0,0,0,0,0,0,0,0,0,0,0,0,0,0,0,0,1.4376,1.4376,0,1.4427,1.4428,1.4429,1.4401,1.4399,1.4398,1.4396,1.4456,1.4459,1.4462,0,0,0,0,0,0,0,0,0,0,0,0,0,1.4259,1.4261,1.4375,1.4376,1.4377,1.4427,1.4428,1.4429,1.4401,1.4399,1.4397,1.4396,1.4455,1.4459,1.4462,0,0,0,0,0,0,0,0,0,0,0,0,0,1.431,1.4262,1.4375,1.4369,1.4369,1.4427,1.4428,1.4429,1.4401,1.4399,1.4397,1.4395,1.4454,1.4458,1.4463,1.4533,0,0,1.4476,1.4478,0,0,0,0,0,0,0,0,1.4307,1.4314,1.4369,1.4369,1.4369,1.4405,1.4409,1.4464,1.4402,1.4389,1.4396,1.4394,1.4441,1.4447,1.4461,1.4536,1.4538,1.4477,1.4479,1.4481,1.4482,0,0,0,0,0,0,0,1.4304,1.4312,1.4396,1.437,1.437,1.4365,1.437,1.4419,1.4427,1.439,1.4388,1.4394,1.4441,1.4457,1.4463,1.4539,1.4476,1.448,1.4483,1.4485,1.4674,1.4677,0,0,0,0,0,0,1.4299,1.4309,1.4395,1.4398,1.4332,1.4369,1.4375,1.4396,1.4426,1.4429,1.4396,1.4393,1.4451,1.4458,1.4465,1.4549,1.4481,1.4485,1.4488,1.4672,1.4675,1.4678,0,0,0,0,0,0,1.4297,1.4307,1.4392,1.4353,1.4363,1.4373,1.4398,1.4398,1.4414,1.4431,1.4433,1.4411,1.4449,1.4458,1.4516,1.4551,1.4487,1.4491,1.4669,1.4673,1.4676,1.4718,0,0,0,0,0,0,1.4294,1.4307,1.4332,1.4354,1.4366,1.4441,1.44,1.4401,1.4421,1.4417,1.4445,1.4448,1.4448,1.4509,1.452,1.4556,1.4495,1.4666,1.4671,1.4675,1.4714,1.4723,1.4731,0,0,0,0,0,1.429,1.4343,1.4333,1.4344,1.4397,1.4443,1.445,1.4448,1.4424,1.445,1.4461,1.4447,1.4545,1.4515,1.4527,1.4565,1.4664,1.467,1.4675,1.471,1.4721,1.4731,0,0,0,0,0,0,1.4327,1.4346,1.4335,1.4397,1.4418,1.4438,1.4471,1.446,1.449,1.4486,1.4484,1.4491,1.455,1.4563,1.453,1.4635,1.4601,1.4609,1.4624,1.4635,1.4643,1.4639,1.4498,0,0,0,0,0,1.4342,1.4376,1.4391,1.4444,1.4455,1.4461,1.4482,1.4478,1.4501,1.4511,1.4526,1.4551,1.4587,1.4612,1.4646,1.4715,1.4722,1.4747,1.4756,1.4762,1.477,1.4808,1.482,1.4695,1.4695,1.4695,0,0,1.4375,1.4389,1.4411,1.4452,1.4468,1.4505,1.447,1.451,1.4538,1.4518,1.4572,1.4584,1.4612,1.4676,1.4705,1.4689,1.4805,1.4769,1.4775,1.4778,1.4815,1.4827,1.4837,1.4699,1.4698,1.4698,0,0,1.4452,1.4466,1.4511,1.4528,1.4552,1.4556,1.4567,1.4589,1.4595,1.4649,1.4635,1.4669,1.4732,1.4753,1.4771,1.4857,1.4845,1.4868,1.4913,1.495,1.496,1.4968,1.5,1.5011,1.4875,1.4875,1.4876,0,1.449,1.4543,1.4537,1.4578,1.4598,1.4579,1.4626,1.4643,1.4679,1.4694,1.4674,1.4752,1.477,1.4838,1.4859,1.4875,1.4888,1.4865,1.4958,1.4967,1.4975,1.5005,1.5017,1.4878,1.4878,1.4878,1.4877,0,1.4588,1.4626,1.466,1.4692,1.4715,1.476,1.4763,1.4787,1.4782,1.4788,1.4844,1.4864,1.4903,1.4919,1.4915,1.4987,1.4976,1.4958,1.4924,1.499,1.5018,1.5029,1.4882,1.4881,1.488,1.488,0,0,1.4692,1.4719,1.4732,1.4747,1.4772,1.4802,1.4846,1.4881,1.4903,1.4928,1.4967,1.502,1.5003,1.5024,1.5022,1.5055,1.5122,1.5033,1.5033,1.5049,1.5204,1.5218,1.5231,1.5114,1.5116,1.5118,1.5202,0,1.4772,1.4846,1.4842,1.4913,1.4949,1.4931,1.497,1.4991,1.4998,1.503,1.5039,1.5077,1.5051,1.5064,1.5096,1.5107,1.5153,1.5101,1.5151,1.5153,1.5145,1.5246,1.5261,1.5339,1.5213,1.5215,1.5216,0,1.4875,1.4901,1.4975,1.4995,1.501,1.5044,1.5077,1.5107,1.5131,1.5134,1.5158,1.515,1.5197,1.5162,1.5227,1.5191,1.5212,1.5221,1.5224,1.5229,1.5189,1.5255,1.5364,1.5376,1.5233,1.5232,1.5231,0,1.4943,1.4998,1.5049,1.5062,1.5087,1.5112,1.5124,1.5145,1.5167,1.5196,1.521,1.5245,1.5264,1.5292,1.5295,1.5269,1.5362,1.5326,1.5367,1.5367,1.5388,1.5387,1.5503,1.54,1.54,1.54,1.54,0,1.5033,1.508,1.508,1.5112,1.5164,1.5159,1.5211,1.5221,1.5241,1.5275,1.5263,1.5296,1.5298,1.5333,1.5336,1.539,1.5399,1.5404,1.5404,1.5405,1.5405,1.5419,1.5414,1.5403,1.5402,1.5402,1.5401,0,1.5119,1.5121,1.5176,1.5194,1.52,1.5238,1.5254,1.5286,1.5291,1.5335,1.5346,1.5356,1.5396,1.5401,1.5449,1.5451,1.5516,1.5511,1.5507,1.5507,1.5548,1.5544,1.5678,1.5695,1.5581,1.5582,1.5582,0,1.5177,1.5211,1.5233,1.5254,1.5267,1.5302,1.5323,1.5321,1.5344,1.5374,1.5402,1.544,1.5471,1.5536,1.5549,1.5586,1.5581,1.5626,1.5587,1.5587,1.5583,1.5581,1.5585,1.5634,1.5635,1.5636,1.5637,0,1.5279,1.5278,1.5308,1.5339,1.5364,1.5389,1.5412,1.5431,1.5432,1.5459,1.5499,1.5522,1.557,1.5609,1.5645,1.5659,1.5649,1.5648,1.566,1.5662,1.5659,1.5661,1.5528,1.5646,1.5645,1.5644,1.5644,1.5643,1.5353,1.5383,1.5402,1.5437,1.5454,1.5476,1.5505,1.5514,1.5547,1.5584,1.5581,1.5625,1.5649,1.5696,1.5713,1.5749,1.5734,1.5751,1.5755,1.576,1.5764,1.5652,1.5755,1.5755,1.5755,1.5755,1.5754,0,1.5455,1.5466,1.5497,1.5529,1.5557,1.5542,1.5567,1.5592,1.563,1.5652,1.5682,1.5728,1.5766,1.5781,1.5818,1.5844,1.584,1.5854,1.5852,1.5856,1.5774,1.5761,1.5856,1.5856,1.5856,1.5856,1.5856,1.5856,1.5511,1.5561,1.5563,1.5622,1.5634,1.5675,1.5691,1.5711,1.5729,1.578,1.5811,1.5819,1.5839,1.5878,1.5912,1.5916,1.5931,1.5947,1.5948,1.5872,1.5862,1.5852,1.5839,1.595,1.595,1.6027,1.6028,1.6028]},{"header":{"parameterUnit":"m.s-1","parameterCategory":1,"la1":30.2991,"la2":30.254,"lo1":-89.0895,"lo2":-89.0444,"dy":0.0017,"dx":0.0017,"nx":28,"ny":28,"refTime":"2024-07-12T21:00:00:Z","depth":0,"parameterNumber":3,"parameterNumberName":"V-component_of_WINDS"},"data":[0,0,0,0,0,0,0,0,0,0,0,0,0,0,0,0,0,0,0,0,0,0,0,0,0,0,0,0,0,0,0,0,0,0,0,0,0,0,0,0,0,0,0,0,0,0,0,0,0,0,0,0,0,0,0,0,0,0,2.7092,2.7092,0,2.7113,2.7113,2.7113,2.7127,2.7127,2.7127,2.7128,2.7146,2.7146,2.7146,0,0,0,0,0,0,0,0,0,0,0,0,0,2.7057,2.7057,2.7092,2.7092,2.7092,2.7113,2.7113,2.7113,2.7127,2.7127,2.7127,2.7128,2.7145,2.7146,2.7146,0,0,0,0,0,0,0,0,0,0,0,0,0,2.7074,2.7057,2.7091,2.7102,2.7103,2.7113,2.7113,2.7114,2.7127,2.7127,2.7127,2.7128,2.7145,2.7146,2.7146,2.7147,0,0,2.7148,2.7149,0,0,0,0,0,0,0,0,2.7073,2.7075,2.71,2.7101,2.7102,2.7118,2.7108,2.7125,2.7127,2.7118,2.7128,2.7128,2.7136,2.7137,2.7141,2.7148,2.7149,2.7148,2.7149,2.7149,2.7149,0,0,0,0,0,0,0,2.7072,2.7075,2.71,2.71,2.7101,2.7103,2.7106,2.7111,2.7126,2.7119,2.712,2.7122,2.7137,2.714,2.7141,2.7149,2.7148,2.7149,2.7149,2.7149,2.7154,2.7154,0,0,0,0,0,0,2.707,2.7073,2.7099,2.7101,2.7088,2.7103,2.7106,2.7112,2.7126,2.7128,2.7122,2.7123,2.7139,2.7141,2.7142,2.7142,2.7149,2.715,2.715,2.7154,2.7154,2.7154,0,0,0,0,0,0,2.7069,2.7072,2.7098,2.7087,2.7091,2.7104,2.7111,2.7113,2.7117,2.7128,2.7131,2.7124,2.7139,2.7141,2.7145,2.7143,2.715,2.715,2.7155,2.7154,2.7154,2.7142,0,0,0,0,0,0,2.7068,2.7072,2.7074,2.7087,2.7091,2.7103,2.711,2.7113,2.7118,2.7119,2.713,2.7132,2.714,2.7144,2.7146,2.7143,2.7151,2.7155,2.7154,2.7154,2.7143,2.7141,2.714,0,0,0,0,0,2.7067,2.707,2.7074,2.7077,2.7095,2.7103,2.7105,2.7115,2.7118,2.7119,2.7126,2.7132,2.7143,2.7145,2.7147,2.7144,2.7155,2.7155,2.7154,2.7143,2.7142,2.714,0,0,0,0,0,0,2.7055,2.7072,2.7077,2.7084,2.7092,2.7105,2.7107,2.7113,2.7119,2.712,2.713,2.7133,2.7135,2.714,2.7142,2.7144,2.7149,2.7149,2.7141,2.7139,2.7138,2.7136,2.7151,0,0,0,0,0,2.7053,2.7061,2.7074,2.7079,2.7083,2.7094,2.7098,2.7105,2.7113,2.7116,2.7123,2.713,2.7134,2.7137,2.7142,2.7143,2.7144,2.7142,2.7141,2.714,2.7139,2.7137,2.7136,2.7152,2.7152,2.7152,0,0,2.705,2.706,2.7064,2.7077,2.7084,2.7089,2.7097,2.7103,2.7106,2.7117,2.7121,2.7126,2.7133,2.7135,2.7136,2.7139,2.7135,2.7139,2.7138,2.7138,2.7137,2.7135,2.7134,2.7152,2.7152,2.7152,0,0,2.7046,2.7056,2.706,2.7066,2.7076,2.7083,2.7084,2.7096,2.71,2.7104,2.7111,2.7114,2.7122,2.7126,2.7129,2.7123,2.7128,2.7124,2.7118,2.7115,2.7114,2.7113,2.7109,2.7107,2.7124,2.7124,2.7124,0,2.7041,2.705,2.7061,2.7066,2.707,2.708,2.7082,2.7087,2.7098,2.71,2.7103,2.7112,2.7118,2.7119,2.7118,2.7121,2.712,2.7123,2.7114,2.7113,2.7112,2.7108,2.7106,2.7123,2.7123,2.7124,2.7124,0,2.7041,2.7047,2.7049,2.706,2.7064,2.7068,2.7076,2.7079,2.7084,2.709,2.7092,2.7099,2.7104,2.7105,2.711,2.7106,2.7107,2.7112,2.7118,2.7109,2.7105,2.7104,2.7122,2.7123,2.7123,2.7123,0,0,2.7033,2.7047,2.7048,2.7051,2.7061,2.7065,2.7067,2.7073,2.7074,2.708,2.7081,2.7086,2.7089,2.7093,2.7098,2.7096,2.7088,2.7101,2.7101,2.7096,2.708,2.7076,2.7074,2.7091,2.7091,2.709,2.7079,0,2.703,2.7037,2.7045,2.7047,2.7051,2.7059,2.706,2.7065,2.707,2.7072,2.7076,2.7079,2.7085,2.7086,2.7085,2.7089,2.7084,2.709,2.7089,2.7089,2.7086,2.7073,2.7069,2.7058,2.7078,2.7078,2.7077,0,2.7028,2.7033,2.7037,2.7044,2.7046,2.7047,2.7051,2.7054,2.7058,2.7061,2.7063,2.7069,2.7069,2.7074,2.7072,2.7076,2.7076,2.7077,2.7077,2.7076,2.7082,2.707,2.7055,2.7052,2.7075,2.7076,2.7076,0,2.7019,2.7027,2.703,2.7032,2.7041,2.7041,2.7045,2.705,2.7051,2.7054,2.7054,2.7057,2.7058,2.7058,2.7063,2.7067,2.7059,2.7066,2.706,2.7059,2.7058,2.7058,2.7041,2.7059,2.706,2.706,2.706,0,2.7015,2.7016,2.7025,2.7027,2.7027,2.7034,2.7034,2.7038,2.7041,2.7041,2.7048,2.7047,2.7054,2.7053,2.7056,2.7053,2.7054,2.7054,2.7055,2.7053,2.7053,2.7053,2.7053,2.7059,2.7059,2.7059,2.7059,0,2.7005,2.7012,2.7015,2.7022,2.7023,2.7023,2.7028,2.7028,2.7032,2.7032,2.7032,2.7037,2.7037,2.7041,2.7042,2.7043,2.7037,2.704,2.7036,2.7037,2.703,2.7029,2.7011,2.7008,2.703,2.703,2.7029,0,2.7002,2.7003,2.7009,2.701,2.7013,2.7015,2.7016,2.7022,2.7023,2.7026,2.7025,2.7025,2.7025,2.7023,2.7026,2.7025,2.7026,2.702,2.7026,2.7023,2.7024,2.7023,2.7022,2.7018,2.7018,2.7018,2.7018,0,2.6994,2.6996,2.6999,2.7001,2.7002,2.7005,2.7007,2.7007,2.7013,2.7013,2.7012,2.7012,2.7012,2.701,2.7009,2.701,2.7014,2.7015,2.7013,2.7011,2.7008,2.7008,2.7031,2.7016,2.7016,2.7016,2.7016,2.7016,2.6986,2.6986,2.699,2.6991,2.6993,2.6995,2.6994,2.6997,2.6997,2.6997,2.7,2.6998,2.6999,2.6998,2.6998,2.6995,2.6998,2.6996,2.6995,2.6994,2.6992,2.7009,2.6995,2.6995,2.6995,2.6995,2.6996,0,2.6977,2.6979,2.698,2.6983,2.6983,2.6987,2.6988,2.6987,2.6986,2.6987,2.6986,2.6984,2.6982,2.6983,2.6981,2.6977,2.6979,2.6976,2.6976,2.6976,2.6991,2.6992,2.6975,2.6975,2.6975,2.6975,2.6975,2.6975,2.6972,2.6971,2.6974,2.6972,2.6974,2.6973,2.6973,2.6973,2.6973,2.697,2.6968,2.6969,2.6969,2.6966,2.6963,2.6963,2.6961,2.6958,2.6959,2.6973,2.6975,2.6977,2.6978,2.6958,2.6958,2.6943,2.6943,2.6943]}]]